EW8829 Weather Reports


Display with metric or nautical units.
time (UTC)temp
F
wind
direction
speed
MPH
gust
MPH
rain 1hr
in
rain 24hr
in
rain mn
in
humidity
%
barometer
mb
20260503232456 55 30 2.0 2.0 0.00 0.00 0.00 43 1008.2
20260503231954 55 157 1.0 2.0 0.00 0.00 0.00 43 1007.9
20260503231452 55 215 0.0 4.0 0.00 0.00 0.00 42 1008.2
20260503230948 55 239 4.0 6.0 0.00 0.00 0.00 40 1008.3
20260503230444 55 135 3.0 3.0 0.00 0.00 0.00 44 1008.0
20260503225942 55 82 2.0 4.0 0.00 0.00 0.00 43 1008.2
20260503225439 55 261 1.0 3.0 0.00 0.00 0.00 42 1008.4
20260503224934 56 167 2.0 5.0 0.00 0.00 0.00 42 1008.2
20260503224431 55 225 2.0 4.0 0.00 0.00 0.00 42 1008.5
20260503223929 55 336 2.0 5.0 0.00 0.00 0.00 41 1008.2
20260503223427 55 285 3.0 6.0 0.00 0.00 0.00 41 1008.3
20260503222922 56 32 0.0 3.0 0.00 0.00 0.00 42 1008.2
20260503222421 56 112 2.0 3.0 0.00 0.00 0.00 43 1008.5
20260503221919 55 9 0.0 3.0 0.00 0.00 0.00 45 1008.4
20260503221417 55 110 2.0 3.0 0.00 0.00 0.00 45 1008.4
20260503220913 55 16 4.0 5.0 0.00 0.00 0.00 42 1008.3
20260503220410 56 340 2.0 4.0 0.00 0.00 0.00 40 1008.4
20260503215907 58 320 2.0 3.0 0.00 0.00 0.00 41 1008.4
20260503215404 56 356 2.0 5.0 0.00 0.00 0.00 40 1008.5
20260503214901 56 311 3.0 3.0 0.00 0.00 0.00 40 1008.5
20260503214358 56 296 2.0 6.0 0.00 0.00 0.00 43 1008.6
20260503213856 56 268 6.0 13.0 0.00 0.00 0.00 40 1008.5
20260503213354 57 200 2.0 6.0 0.00 0.00 0.00 40 1008.7
20260503212850 57 299 3.0 6.0 0.00 0.00 0.00 39 1008.5
20260503212348 56 249 3.0 5.0 0.00 0.00 0.00 40 1008.5
20260503211845 57 265 8.0 15.0 0.00 0.00 0.00 40 1008.5
20260503211342 56 115 3.0 5.0 0.00 0.00 0.00 43 1008.6
20260503210837 56 278 6.0 6.0 0.00 0.00 0.00 42 1008.5
20260503210334 56 331 3.0 11.0 0.00 0.00 0.00 41 1008.4
20260503205829 56 136 4.0 6.0 0.00 0.00 0.00 45 1008.5
20260503205326 55 325 0.0 4.0 0.00 0.00 0.00 44 1008.8
20260503204823 54 256 7.0 8.0 0.00 0.00 0.00 45 1008.8
20260503204320 53 70 8.0 14.0 0.00 0.00 0.00 46 1008.9
20260503203817 53 14 5.0 17.0 0.00 0.00 0.00 46 1008.9
20260503203315 54 238 4.0 11.0 0.00 0.00 0.00 42 1008.8
20260503202811 54 299 5.0 18.0 0.00 0.00 0.00 41 1008.6
20260503202310 54 14 1.0 7.0 0.00 0.00 0.00 41 1008.8
20260503201807 54 67 0.0 9.0 0.00 0.00 0.00 44 1008.7
20260503201304 55 263 12.0 13.0 0.00 0.00 0.00 40 1008.8
20260503200802 55 9 2.0 5.0 0.00 0.00 0.00 40 1008.7
20260503200257 55 344 3.0 5.0 0.00 0.00 0.00 38 1008.6
20260503195755 55 314 4.0 7.0 0.00 0.00 0.00 38 1008.5
20260503195251 56 350 3.0 4.0 0.00 0.00 0.00 38 1008.5
20260503194749 58 281 4.0 5.0 0.00 0.00 0.00 35 1008.6
20260503194244 57 314 3.0 6.0 0.00 0.00 0.00 37 1008.8
20260503193741 56 255 6.0 10.0 0.00 0.00 0.00 34 1008.9
20260503193237 55 281 6.0 16.0 0.00 0.00 0.00 36 1008.9
20260503192733 55 259 11.0 12.0 0.00 0.00 0.00 36 1008.8
20260503192228 55 11 4.0 5.0 0.00 0.00 0.00 37 1008.9
20260503191725 56 142 2.0 13.0 0.00 0.00 0.00 36 1008.8
20260503191222 55 332 6.0 11.0 0.00 0.00 0.00 35 1008.9
20260503190719 55 17 2.0 7.0 0.00 0.00 0.00 36 1008.8
20260503190215 55 83 4.0 7.0 0.00 0.00 0.00 35 1008.9
20260503185713 57 227 5.0 12.0 0.00 0.00 0.00 33 1009.0
20260503185208 56 344 2.0 5.0 0.00 0.00 0.00 37 1009.2
20260503184703 57 200 4.0 6.0 0.00 0.00 0.00 39 1009.1
20260503184200 55 24 5.0 10.0 0.00 0.00 0.00 37 1009.3
20260503183656 57 40 3.0 5.0 0.00 0.00 0.00 37 1009.4
20260503183153 56 191 6.0 16.0 0.00 0.00 0.00 35 1008.9
20260503182651 57 28 3.0 5.0 0.00 0.00 0.00 32 1009.3
20260503182150 56 301 5.0 8.0 0.00 0.00 0.00 37 1009.3
20260503181646 54 18 3.0 6.0 0.00 0.00 0.00 40 1009.7
20260503181143 56 317 5.0 12.0 0.00 0.00 0.00 33 1009.4
20260503180640 56 72 4.0 10.0 0.00 0.00 0.00 40 1009.4
20260503180138 55 55 3.0 12.0 0.00 0.00 0.00 37 1009.6
20260503175635 53 74 4.0 6.0 0.00 0.00 0.00 37 1009.6
20260503175132 53 313 5.0 9.0 0.00 0.00 0.00 35 1009.8
20260503174628 55 295 3.0 13.0 0.00 0.00 0.00 39 1010.0
20260503174126 54 25 6.0 8.0 0.00 0.00 0.00 41 1009.9
20260503173620 53 69 6.0 7.0 0.00 0.00 0.00 39 1010.2
20260503173117 52 118 6.0 11.0 0.00 0.00 0.00 37 1010.2
20260503172614 51 10 5.0 9.0 0.00 0.00 0.00 39 1010.2
20260503172112 54 7 3.0 5.0 0.00 0.00 0.00 38 1010.3
20260503171608 54 309 3.0 3.0 0.00 0.00 0.00 42 1010.4
20260503171105 52 92 4.0 6.0 0.00 0.00 0.00 39 1010.4
20260503170601 52 293 9.0 17.0 0.00 0.00 0.00 40 1010.3
20260503150954 51 84 3.0 9.0 0.00 0.00 0.00 42 1011.6
20260503150450 48 63 6.0 12.0 0.00 0.00 0.00 40 1011.6
20260503131343 45 345 2.0 9.0 0.00 0.00 0.00 49 1011.8
20260503130841 45 18 3.0 6.0 0.00 0.00 0.00 51 1012.0
20260503130338 46 340 5.0 12.0 0.00 0.00 0.00 50 1012.1
20260503110732 37 24 2.0 3.0 0.00 0.00 0.00 86 1011.8
20260503110229 37 54 2.0 3.0 0.00 0.00 0.00 84 1011.8
20260503100155 35 55 1.0 2.0 0.00 0.00 0.00 94 1011.2
20260503090115 35 64 1.0 2.0 0.00 0.00 0.00 93 1010.8
20260503081550 35 68 1.0 2.0 0.00 0.00 0.00 90 1010.7
20260503081048 35 73 2.0 2.0 0.00 0.00 0.00 90 1010.7
20260503080544 35 65 1.0 2.0 0.00 0.00 0.00 89 1010.6
20260503072517 35 68 1.0 2.0 0.00 0.00 0.00 91 1010.7
20260503072014 35 77 2.0 2.0 0.00 0.00 0.00 90 1010.6
20260503071511 36 62 2.0 2.0 0.00 0.00 0.00 90 1010.7
20260503071008 36 78 2.0 2.0 0.00 0.00 0.00 88 1010.7
20260503070505 36 62 0.0 2.0 0.00 0.00 0.00 88 1010.7
20260503054928 35 63 2.0 2.0 0.00 0.00 0.00 87 1010.9
20260503054424 36 60 2.0 2.0 0.00 0.00 0.00 87 1011.3
20260503053922 36 75 2.0 2.0 0.00 0.00 0.00 87 1011.3
20260503053420 36 73 2.0 2.0 0.00 0.00 0.00 87 1011.4
20260503052916 36 72 2.0 2.0 0.00 0.00 0.00 86 1011.3
20260503052414 36 73 2.0 3.0 0.00 0.00 0.00 86 1011.6
20260503051910 37 121 0.0 1.0 0.00 0.00 0.00 86 1011.6
20260503051406 36 57 2.0 2.0 0.00 0.00 0.00 87 1011.5
20260503050903 37 77 2.0 2.0 0.00 0.00 0.00 86 1011.5
20260503050359 37 31 1.0 2.0 0.00 0.00 0.00 85 1011.7
20260503045857 37 48 2.0 3.0 0.00 0.00 0.00 85 1011.8
20260503045354 37 56 2.0 2.0 0.00 0.00 0.00 85 1011.8
20260503044851 37 36 2.0 2.0 0.00 0.00 0.00 84 1012.0
20260503044348 37 58 2.0 2.0 0.00 0.00 0.00 84 1011.9
20260503043845 37 86 2.0 2.0 0.00 0.00 0.00 84 1011.8
20260503043342 37 85 2.0 3.0 0.00 0.00 0.00 83 1011.9
20260503042838 37 43 1.0 2.0 0.00 0.00 0.00 83 1012.0
20260503042335 37 31 1.0 2.0 0.00 0.00 0.00 83 1012.2
20260503041830 37 63 2.0 2.0 0.00 0.00 0.00 82 1012.2
20260503041328 37 62 2.0 3.0 0.00 0.00 0.00 82 1012.1
20260503040826 37 50 2.0 3.0 0.00 0.00 0.00 81 1012.1
20260503040323 37 62 1.0 2.0 0.00 0.00 0.00 80 1012.1
20260503035820 38 34 1.0 2.0 0.00 0.00 0.00 80 1012.0
20260503035317 37 315 0.0 2.0 0.00 0.00 0.00 80 1012.1
20260503034814 38 50 1.0 1.0 0.00 0.00 0.00 79 1012.2
20260503034311 38 33 0.0 2.0 0.00 0.00 0.00 80 1012.0
20260503033809 38 84 2.0 2.0 0.00 0.00 0.00 78 1012.0
20260503033306 38 49 0.0 2.0 0.00 0.00 0.00 79 1012.0
20260503032804 38 61 2.0 2.0 0.00 0.00 0.00 78 1012.2
20260503032304 38 40 1.0 2.0 0.00 0.00 0.00 78 1012.0
20260503031759 38 53 1.0 4.0 0.00 0.00 0.00 76 1012.2
20260503031257 38 30 1.0 2.0 0.00 0.00 0.00 77 1012.0
20260503030753 39 59 2.0 3.0 0.00 0.00 0.00 75 1012.3
20260503030250 39 33 2.0 2.0 0.00 0.00 0.00 74 1012.1
20260503025747 39 22 0.0 3.0 0.00 0.00 0.00 75 1012.1
20260503025244 39 23 2.0 2.0 0.00 0.00 0.00 74 1012.3
20260503024741 39 10 1.0 2.0 0.00 0.00 0.00 75 1011.9
20260503024238 39 357 0.0 1.0 0.00 0.00 0.00 75 1012.0
20260503023735 39 15 1.0 2.0 0.00 0.00 0.00 75 1012.2
20260503023232 40 45 1.0 3.0 0.00 0.00 0.00 72 1012.0
20260503022728 40 38 2.0 3.0 0.00 0.00 0.00 72 1012.2
20260503022228 40 35 3.0 3.0 0.00 0.00 0.00 69 1012.1
20260503021725 40 51 3.0 3.0 0.00 0.00 0.00 69 1012.2
20260503021221 40 35 3.0 3.0 0.00 0.00 0.00 68 1012.2
20260503020719 40 44 2.0 3.0 0.00 0.00 0.00 70 1012.4
20260503020216 40 89 1.0 3.0 0.00 0.00 0.00 70 1012.4
20260503015713 41 36 3.0 3.0 0.00 0.00 0.00 69 1012.2
20260503015210 41 33 2.0 4.0 0.00 0.00 0.00 68 1012.3
20260503014705 41 18 1.0 2.0 0.00 0.00 0.00 72 1012.4
20260503014203 41 49 0.0 2.0 0.00 0.00 0.00 72 1012.4
20260503013700 41 17 4.0 4.0 0.00 0.00 0.00 68 1012.2
20260503013158 41 44 1.0 2.0 0.00 0.00 0.00 70 1012.1
20260503012655 41 45 2.0 3.0 0.00 0.00 0.00 70 1012.1
20260503012152 41 32 3.0 3.0 0.00 0.00 0.00 68 1012.0
20260503011648 42 28 2.0 3.0 0.00 0.00 0.00 67 1011.9
20260503011145 42 31 3.0 4.0 0.00 0.00 0.00 65 1012.1
20260503010641 42 31 3.0 4.0 0.00 0.00 0.00 65 1012.0
20260503010139 42 36 2.0 3.0 0.00 0.00 0.00 65 1012.0
20260503005636 42 33 3.0 3.0 0.00 0.00 0.00 65 1011.8
20260503005133 42 28 1.0 4.0 0.00 0.00 0.00 64 1012.1
20260503004629 42 317 1.0 2.0 0.00 0.00 0.00 65 1011.7
20260503004128 42 11 0.0 4.0 0.00 0.00 0.00 63 1011.6
20260503003624 42 31 3.0 3.0 0.00 0.00 0.00 61 1011.6
20260503003121 42 81 2.0 2.0 0.00 0.00 0.00 61 1011.7
20260503002618 42 43 2.0 3.0 0.00 0.00 0.00 62 1011.6
20260503002115 43 29 3.0 3.0 0.00 0.00 0.00 61 1011.9
20260503001611 43 42 3.0 4.0 0.00 0.00 0.00 59 1011.9
20260503001109 43 45 1.0 4.0 0.00 0.00 0.00 60 1011.7
20260503000606 43 39 2.0 3.0 0.00 0.00 0.00 58 1011.6
20260503000103 43 40 3.0 4.0 0.00 0.00 0.00 58 1011.7
20260502235559 44 355 3.0 4.0 0.00 0.00 0.00 58 1011.6
20260502235057 44 38 3.0 4.0 0.00 0.00 0.00 55 1011.5
20260502234553 44 11 4.0 6.0 0.00 0.00 0.00 55 1011.5
20260502234051 44 28 3.0 3.0 0.00 0.00 0.00 55 1011.4
20260502233551 44 32 3.0 3.0 0.00 0.00 0.00 56 1011.5
20260502233049 45 23 4.0 4.0 0.00 0.00 0.00 55 1011.2